Wind_Speed
4 4 4 4 4 3 3 3 3 3 3 2 3 3 2 2 3 3 3 4 4 5 5 5 5 5 6 6 6 6 6 7 6 6 6 6 6 7 7 7 6 6 6
5 4 5 4 4 4 3 3 3 3 2 3 3 3 3 3 4 5 5 5 6 6 6 6 6 6 7 7 7 7 7 8 7 7 7 7 7 8 7 7 7 8 8
5 5 5 5 5 5 4 4 4 3 3 3 3 3 4 5 5 6 6 7 7 7 7 7 7 7 8 8 8 8 8 8 8 7 7 8 8 9 8 8 8 8 8
6 6 5 5 5 5 5 5 5 4 4 4 4 5 5 6 6 7 7 7 7 7 8 8 8 8 8 9 9 10 10 9 9 9 9 9 10 10 10 9 9 9 9
6 6 6 6 6 5 5 5 5 5 5 5 6 6 7 7 7 7 7 7 6 7 7 8 9 9 9 10 10 10 10 10 10 10 10 10 11 11 11 10 9 9 9
7 7 6 6 6 6 6 6 6 6 6 6 7 7 7 7 7 7 7 7 6 7 7 8 9 10 10 10 10 10 11 11 11 11 11 11 10 10 10 10 10 9 9
7 7 6 6 6 6 6 6 7 6 6 7 7 7 7 7 7 7 7 7 7 7 8 8 9 9 10 10 10 11 11 11 11 11 11 10 10 9 9 9 10 10 9
7 7 7 7 6 6 7 7 7 7 7 7 7 7 7 7 7 7 7 8 8 8 8 9 9 9 9 10 10 11 11 11 11 11 10 10 10 9 9 9 10 9 9
6 7 7 7 7 8 7 8 7 7 7 7 7 7 6 6 7 7 8 8 9 9 9 9 10 10 10 11 10 10 10 10 10 10 9 9 10 10 10 10 10 10 9
7 8 8 8 9 9 8 8 8 8 8 8 8 8 7 6 7 7 8 8 9 9 9 9 10 10 10 10 9 9 9 10 10 10 9 9 10 10 10 9 10 10 10
8 8 8 8 8 9 9 9 9 9 9 9 9 9 8 8 7 7 8 8 9 10 10 10 10 10 10 10 10 9 10 10 11 11 11 11 11 11 10 10 10 10 11
10 10 9 8 8 9 9 9 9 9 9 9 9 9 9 9 9 9 8 9 9 10 10 10 10 10 11 11 10 11 11 12 11 11 12 12 12 11 11 11 11 11 12
10 10 10 9 9 9 9 9 9 9 10 9 9 9 9 9 9 10 9 9 10 10 10 11 11 11 11 11 11 11 12 12 11 12 12 13 13 13 12 11 12 12 12
10 10 10 9 9 9 9 9 10 10 10 10 9 9 9 10 10 10 10 11 10 11 11 11 11 12 12 12 12 12 12 12 12 12 13 13 14 14 14 13 12 13 13
10 10 10 10 10 10 10 10 9 10 10 10 10 9 10 10 11 11 12 12 11 11 12 12 12 12 12 12 12 12 12 13 13 13 14 14 14 14 14 15 14 14 14
11 11 11 11 11 11 11 11 10 11 10 10 10 10 11 11 11 12 12 12 11 12 12 12 12 12 12 12 13 13 13 14 14 14 15 15 15 15 14 15 15 15 14
11 11 11 11 12 12 12 12 12 12 12 11 12 13 13 13 13 13 13 12 12 12 12 12 12 13 13 14 14 14 14 15 15 16 16 16 16 16 15 16 16 16 16
12 12 12 12 13 13 13 13 13 12 13 13 13 14 14 14 13 14 13 13 12 12 12 13 13 14 15 15 15 16 16 16 16 16 17 17 17 18 17 17 17 17 17
13 14 14 13 14 14 14 14 14 14 14 14 14 15 15 15 14 14 14 14 14 14 14 14 15 15 16 16 16 17 17 17 16 17 17 17 17 18 18 18 17 17 17
15 15 15 15 15 15 15 15 15 15 15 15 16 15 15 15 15 15 15 15 15 15 15 15 16 16 17 17 17 17 17 17 17 17 17 18 18 18 18 18 17 17 17
16 16 16 16 16 16 16 16 16 17 17 17 17 16 16 16 16 16 16 16 16 16 16 16 17 17 17 18 18 18 18 18 18 18 18 18 18 18 18 18 18 18 17
17 17 17 18 18 17 17 17 18 18 18 18 18 17 17 18 17 17 17 17 17 17 17 17 18 18 18 19 19 19 19 20 20 20 19 19 19 19 19 19 19 19 18
18 18 18 18 19 19 18 19 19 19 19 19 19 19 18 19 18 18 18 18 18 19 19 19 19 19 20 20 20 20 21 21 21 21 21 21 20 20 20 20 20 20 19
19 19 19 20 20 20 20 20 20 20 20 20 20 20 20 20 19 20 20 19 19 20 20 20 20 21 21 21 22 22 22 22 22 21 22 22 21 21 21 21 21 21 20
20 19 20 20 20 19 20 21 21 21 20 21 21 21 21 21 21 21 20 20 20 21 21 21 22 22 22 22 23 23 23 22 22 22 22 22 22 22 22 22 22 21 20
20 19 20 21 21 20 21 21 21 22 22 22 21 21 22 22 22 22 21 21 21 22 22 22 23 23 23 23 23 23 23 23 23 23 22 22 22 22 22 22 22 21 21
Wind_Direction
228 233 237 237 239 245 249 249 240 239 249 257 261 267 284 277 275 274 275 266 272 272 269 275 279 278 276 278 276 278 277 277 281 283 285 293 295 291 290 289 289 291 287
237 242 249 246 245 250 251 250 249 252 254 262 264 259 272 279 287 289 279 274 274 272 273 276 279 281 278 276 273 276 278 280 281 283 284 289 288 287 288 287 286 289 288
242 250 254 254 250 257 260 258 256 249 251 271 275 265 267 276 285 290 288 280 276 275 273 272 276 281 282 279 277 277 278 277 280 283 287 287 286 288 286 282 281 282 284
245 253 253 256 254 256 262 264 257 251 260 272 279 276 282 287 293 295 292 285 282 280 280 275 273 277 280 278 274 275 274 274 276 283 289 287 288 289 287 281 280 282 283
246 249 251 258 256 256 262 265 262 257 264 273 281 285 290 294 295 296 295 293 290 287 289 286 281 280 281 280 278 275 272 273 273 283 288 288 288 286 283 278 278 281 286
246 249 253 258 258 256 256 261 260 263 265 276 284 292 295 297 295 293 293 296 294 294 291 288 286 289 285 281 281 282 278 279 280 284 285 289 294 287 280 274 275 279 283
247 247 251 255 257 257 258 262 262 265 273 283 287 295 296 296 293 291 293 293 294 294 292 289 288 290 289 283 283 285 282 279 282 285 287 286 295 292 278 276 275 275 278
253 252 247 253 258 263 262 266 265 269 278 282 285 290 293 291 293 293 294 295 294 293 291 291 291 293 292 289 287 287 285 278 279 283 283 283 285 283 277 277 277 277 276
255 255 255 258 259 262 265 269 269 273 277 278 285 292 293 293 295 295 295 296 294 293 291 289 289 293 294 290 287 287 281 278 279 281 279 279 282 281 277 276 276 275 274
263 263 268 267 267 268 270 272 273 275 279 278 283 288 290 291 292 292 294 296 295 296 296 292 291 292 292 288 288 290 284 282 282 281 281 281 283 283 279 274 274 273 274
265 267 268 274 276 273 272 273 276 280 282 281 283 286 289 293 291 293 295 295 294 298 299 295 291 291 289 288 289 291 289 285 284 283 283 283 284 283 280 276 274 274 272
270 272 274 274 274 273 274 276 276 279 281 279 279 283 285 288 291 292 296 295 296 297 297 295 293 293 293 290 288 289 288 286 286 288 286 286 285 282 279 278 276 274 271
271 274 278 278 280 283 280 280 279 280 281 279 278 280 283 288 290 289 292 294 297 298 297 298 297 296 294 290 289 289 291 291 289 290 289 290 290 287 281 280 278 279 278
271 272 274 274 280 287 286 289 285 280 279 279 279 282 285 287 289 290 293 296 298 301 299 302 303 301 294 289 288 291 292 293 291 291 290 291 292 290 285 282 280 279 277
270 270 271 271 276 284 287 289 292 291 282 281 285 284 285 287 288 292 294 297 297 299 300 301 300 299 298 296 293 291 290 290 292 290 289 289 290 291 289 286 283 283 280
269 271 273 272 274 281 285 288 290 293 289 288 288 287 288 291 291 293 296 295 296 298 298 298 297 296 295 294 293 292 290 290 291 291 290 290 290 289 289 288 286 285 283
268 270 273 273 275 279 280 284 285 287 290 291 294 293 293 294 294 296 296 296 296 296 299 299 298 296 294 294 294 295 293 292 293 292 291 291 290 289 289 289 288 287 285
269 270 272 275 276 277 278 281 282 287 289 291 292 295 296 298 297 295 294 295 295 296 298 299 300 299 297 295 294 294 294 293 294 293 292 291 290 289 288 288 290 288 287
268 270 272 274 276 276 278 280 282 286 285 288 289 291 293 295 297 297 296 294 295 297 297 297 298 298 297 296 295 294 294 294 293 293 292 291 291 289 288 287 287 287 288
268 270 271 272 274 276 278 280 281 283 283 285 288 289 291 292 293 296 299 299 298 300 299 297 298 299 297 296 296 296 295 294 292 291 290 289 288 288 287 286 286 286 286
268 270 272 272 274 276 277 278 279 282 284 286 286 290 290 290 290 295 298 299 298 298 298 299 298 298 297 296 295 295 294 293 292 291 289 288 287 287 287 286 287 284 284
269 270 272 274 275 276 275 275 277 280 283 286 287 289 290 291 292 294 295 296 297 296 296 298 298 298 298 296 295 294 294 293 292 290 288 287 286 285 285 285 286 284 283
271 272 274 275 276 276 276 275 277 279 281 284 286 287 289 291 291 291 293 294 295 295 296 297 298 298 298 297 295 295 294 293 292 290 287 285 283 282 282 282 284 283 280
271 272 273 275 276 276 276 277 277 277 280 282 283 284 287 289 290 291 291 292 294 295 296 297 297 298 298 297 296 296 295 294 292 290 287 285 282 281 280 281 282 281 279
270 272 273 275 275 276 276 276 276 277 279 281 281 282 284 287 289 290 290 291 292 294 296 298 298 298 298 298 297 297 296 294 292 291 288 285 283 281 279 280 278 276 275
272 274 274 276 277 277 277 278 278 278 279 280 280 280 282 285 287 289 288 290 291 293 295 297 298 297 297 297 298 297 296 295 292 291 288 286 284 282 280 279 275 273 272
Height
5871 5871 5872 5872 5873 5873 5873 5873 5873 5874 5874 5874 5873 5873 5873 5873 5873 5873 5873 5873 5873 5873 5874 5874 5874 5874 5874 5874 5873 5873 5873 5873 5873 5872 5872 5871 5871 5870 5870 5869 5869 5869 5869
5871 5871 5872 5872 5872 5873 5873 5873 5873 5873 5873 5873 5873 5873 5873 5873 5873 5873 5873 5872 5872 5872 5873 5873 5873 5873 5873 5873 5873 5872 5872 5872 5871 5871 5871 5870 5870 5869 5869 5868 5868 5868 5868
5871 5871 5871 5872 5872 5872 5873 5873 5873 5873 5873 5873 5872 5872 5872 5872 5872 5872 5872 5871 5871 5871 5872 5872 5872 5872 5871 5871 5871 5871 5871 5871 5870 5870 5870 5869 5868 5868 5867 5867 5867 5866 5866
5870 5871 5871 5871 5871 5872 5872 5872 5872 5872 5872 5872 5872 5872 5871 5871 5871 5871 5870 5870 5870 5870 5870 5871 5871 5871 5870 5870 5870 5870 5869 5869 5869 5868 5868 5867 5867 5866 5865 5865 5865 5864 5863
5870 5870 5870 5870 5871 5871 5871 5871 5872 5872 5871 5871 5871 5871 5870 5870 5869 5869 5869 5869 5869 5869 5869 5869 5869 5869 5869 5869 5868 5868 5868 5868 5867 5867 5866 5865 5864 5863 5862 5862 5863 5863 5861
5869 5869 5869 5870 5870 5870 5870 5871 5871 5871 5871 5871 5870 5870 5869 5868 5868 5867 5867 5868 5868 5868 5868 5868 5868 5867 5867 5867 5867 5866 5866 5866 5866 5865 5865 5863 5861 5859 5859 5860 5861 5861 5860
5869 5869 5869 5869 5869 5869 5869 5870 5870 5870 5870 5870 5869 5869 5868 5868 5867 5867 5866 5866 5866 5866 5866 5866 5866 5866 5865 5865 5865 5864 5864 5864 5864 5863 5863 5861 5859 5857 5857 5859 5859 5860 5859
5868 5868 5868 5868 5868 5868 5869 5869 5869 5869 5869 5868 5868 5868 5867 5867 5866 5866 5866 5865 5865 5865 5865 5864 5864 5864 5864 5863 5863 5862 5862 5862 5862 5861 5861 5860 5859 5858 5858 5858 5858 5858 5858
5866 5867 5867 5867 5867 5867 5867 5868 5868 5868 5868 5868 5867 5867 5866 5865 5865 5865 5864 5864 5864 5863 5863 5863 5862 5862 5862 5861 5860 5860 5860 5860 5860 5860 5860 5859 5858 5858 5857 5857 5856 5856 5856
5866 5866 5866 5866 5866 5866 5866 5866 5866 5866 5866 5866 5866 5866 5865 5864 5864 5864 5863 5863 5862 5862 5861 5861 5861 5860 5860 5859 5859 5858 5858 5858 5858 5858 5858 5857 5857 5856 5856 5856 5855 5855 5855
5864 5865 5865 5865 5865 5865 5865 5865 5865 5865 5865 5865 5865 5865 5864 5864 5863 5863 5862 5861 5861 5860 5860 5859 5859 5858 5858 5858 5857 5857 5857 5856 5856 5856 5856 5855 5855 5855 5854 5854 5853 5853 5853
5863 5863 5863 5863 5863 5863 5863 5863 5863 5864 5863 5863 5863 5863 5863 5863 5862 5861 5861 5860 5860 5859 5858 5857 5857 5857 5856 5856 5855 5855 5855 5854 5854 5854 5853 5853 5853 5852 5852 5852 5851 5851 5851
5861 5862 5862 5862 5862 5862 5862 5862 5862 5862 5862 5861 5861 5861 5861 5861 5860 5860 5859 5859 5858 5857 5856 5856 5855 5855 5854 5854 5853 5853 5852 5852 5852 5852 5851 5850 5850 5850 5850 5849 5849 5849 5849
5860 5860 5860 5860 5860 5860 5860 5860 5860 5860 5860 5860 5859 5859 5859 5859 5858 5858 5857 5857 5856 5855 5855 5854 5853 5853 5852 5852 5851 5851 5850 5850 5849 5849 5849 5848 5848 5847 5847 5847 5846 5846 5846
5858 5858 5859 5859 5859 5859 5859 5859 5859 5859 5858 5858 5857 5857 5857 5857 5857 5856 5855 5854 5854 5853 5853 5852 5851 5850 5850 5849 5849 5848 5848 5847 5847 5846 5846 5845 5845 5845 5844 5844 5844 5843 5843
5856 5856 5857 5857 5857 5857 5857 5857 5857 5857 5857 5856 5856 5856 5855 5855 5854 5854 5853 5852 5851 5851 5850 5850 5849 5848 5848 5847 5846 5845 5845 5844 5844 5843 5842 5842 5842 5841 5841 5841 5841 5840 5840
5854 5854 5854 5854 5854 5855 5855 5855 5855 5855 5855 5854 5854 5854 5853 5853 5852 5852 5851 5850 5849 5848 5848 5847 5846 5845 5845 5844 5843 5842 5842 5841 5840 5840 5839 5838 5838 5838 5838 5837 5837 5837 5837
5852 5852 5852 5852 5852 5852 5853 5853 5853 5853 5852 5852 5852 5851 5851 5850 5850 5849 5848 5847 5846 5845 5845 5844 5843 5842 5842 5841 5840 5839 5838 5837 5837 5836 5835 5835 5834 5834 5834 5834 5834 5834 5833
5849 5850 5850 5850 5850 5850 5850 5850 5850 5850 5850 5850 5849 5849 5848 5847 5847 5846 5846 5845 5844 5843 5842 5841 5840 5839 5838 5837 5836 5835 5834 5833 5832 5832 5831 5830 5830 5829 5829 5829 5830 5829 5829
5846 5846 5847 5847 5847 5847 5847 5847 5848 5847 5847 5847 5846 5846 5845 5845 5844 5843 5843 5842 5841 5840 5839 5838 5837 5835 5834 5833 5832 5831 5830 5829 5828 5827 5827 5826 5825 5825 5824 5825 5825 5825 5825
5843 5843 5843 5844 5844 5844 5844 5844 5844 5844 5844 5843 5843 5842 5842 5842 5841 5840 5840 5838 5837 5837 5836 5834 5833 5832 5831 5829 5828 5827 5826 5824 5823 5822 5822 5821 5821 5820 5820 5820 5820 5821 5821
5839 5839 5840 5840 5840 5840 5841 5841 5841 5840 5840 5840 5839 5839 5838 5838 5837 5837 5836 5835 5834 5833 5832 5831 5829 5828 5826 5825 5824 5822 5821 5820 5818 5817 5816 5816 5816 5815 5816 5816 5816 5816 5816
5836 5836 5836 5836 5836 5836 5836 5836 5836 5836 5836 5836 5835 5835 5834 5834 5833 5833 5832 5831 5830 5829 5828 5826 5825 5823 5822 5820 5818 5817 5816 5814 5813 5812 5810 5810 5810 5810 5810 5811 5811 5811 5811
5831 5831 5831 5831 5831 5831 5831 5831 5831 5831 5831 5831 5831 5830 5830 5829 5829 5828 5827 5826 5825 5824 5823 5822 5820 5818 5817 5815 5813 5811 5809 5808 5807 5806 5805 5804 5804 5804 5805 5805 5805 5805 5805
5827 5827 5827 5827 5826 5826 5826 5826 5826 5826 5826 5826 5826 5825 5825 5824 5823 5823 5822 5821 5820 5819 5818 5816 5815 5813 5811 5809 5807 5805 5803 5801 5800 5799 5798 5797 5797 5798 5798 5798 5799 5800 5800
5822 5822 5822 5822 5821 5821 5821 5820 5820 5820 5820 5820 5820 5820 5819 5819 5818 5817 5816 5815 5814 5813 5812 5811 5809 5807 5805 5803 5801 5799 5797 5795 5793 5792 5791 5791 5791 5791 5791 5791 5792 5793 5794